Guasti, CA

6:43 PM PST on December 10, 2016 (GMT -0800)
Ontario International

Weather History for KONT - May, 2014

Change the Weather History Date:

Wednesday, May 14, 2014

  Actual Average Record
Temperature  
Mean Temperature 90 °F 67 °F  
Max Temperature 98 °F 79 °F 98 °F (2014)
Min Temperature 81 °F 56 °F 50 °F (2000)
Degree Days  
Heating Degree Days 0 1  
Month to date heating degree days 9 22  
Since 1 July heating degree days 831 1515  
Cooling Degree Days 25 3  
Month to date cooling degree days 97 41  
Year to date cooling degree days 267 100  
Growing Degree Days 40 (Base 50)    
Moisture  
Dew Point 13 °F    
Average Humidity 5    
Maximum Humidity 6    
Minimum Humidity 4    
Precipitation  
Precipitation 0.00 in 0.01 in 0.45 in (2015)
Month to date precipitation T 0.21  
Year to date precipitation 3.42 10.17  
Since 1 July precipitation 4.34  
Snow  
Snow 0.00 in - - ()
Month to date snowfall 0.0  
Year to date snowfall 0.0  
Snow Depth 0.00 in    
Sea Level Pressure  
Sea Level Pressure 29.97 in    
Wind  
Wind Speed 21 mph (NNE)    
Max Wind Speed 36 mph    
Max Gust Speed 46 mph    
Visibility 10 miles    
Events      
T = Trace of Precipitation, MM = Missing Value Source: NWS Daily Summary

Daily Weather History Graph

Daily Weather History Graph

Search for Another Location

Airport or City:

Trip Planner

Search our weather history database for the weather conditions in past years. The results will help you decide how hot, cold, wet, or windy it might be!

Date:

Astronomy

May. 14, 2014 Rise Set
Actual Time 5:49 AM PDT 7:44 PM PDT
Civil Twilight 5:21 AM PDT 8:12 PM PDT
Nautical Twilight 4:48 AM PDT 8:45 PM PDT
Astronomical Twilight 4:12 AM PDT 9:21 PM PDT
Moon 7:55 PM PDT (5/14) 5:49 AM PDT (5/14)
Length of Visible Light 14h 50m
Length of Day
13h 54m
Full, 100% of the Moon is Illuminated
May 14
Full
May 14
Full
May 21
Last Quarter
May 28
New
Jun 5
First Quarter

Hourly Weather History & Observations

Time (PDT) Temp. Dew Point Humidity Pressure Visibility Wind Dir Wind Speed Gust Speed Precip Events Conditions
12:53 AM 82.0 °F 8.1 °F 6% 30.01 in 10.0 mi NE 16.1 mph 23.0 mph N/A   Clear
1:53 AM 82.4 °F 8.6 °F 6% 30.06 in 10.0 mi NE 18.4 mph 25.3 mph N/A   Clear
2:53 AM 82.0 °F 9.0 °F 6% 29.99 in 10.0 mi NE 15.0 mph 29.9 mph N/A   Clear
3:53 AM 82.0 °F 6.1 °F 6% 29.99 in 10.0 mi NE 17.3 mph 23.0 mph N/A   Clear
4:53 AM 82.4 °F 6.8 °F 6% 30.05 in 10.0 mi NE 15.0 mph 24.2 mph N/A   Clear
5:53 AM 82.0 °F 7.0 °F 6% 30.00 in 10.0 mi NE 15.0 mph 26.5 mph N/A   Clear
6:53 AM 82.9 °F 9.0 °F 6% 30.00 in 10.0 mi NNE 19.6 mph 33.4 mph N/A   Clear
8:53 AM 87.1 °F 10.9 °F 6% 30.01 in 10.0 mi NNE 26.5 mph 36.8 mph N/A   Clear
9:53 AM 90.0 °F 12.9 °F 6% 30.00 in 10.0 mi NNE 25.3 mph 38.0 mph N/A   Clear
10:53 AM 91.9 °F 12.9 °F 5% 30.00 in 10.0 mi NNE 31.1 mph 43.7 mph N/A   Clear
11:53 AM 93.9 °F 12.9 °F 5% 29.99 in 10.0 mi NNE 29.9 mph 46.0 mph N/A   Clear
12:53 PM 95.0 °F 14.0 °F 5% 29.97 in 10.0 mi NNE 20.7 mph 35.7 mph N/A   Clear
1:53 PM 98.1 °F 15.1 °F 5% 29.95 in 10.0 mi NE 21.9 mph 33.4 mph N/A   Clear
2:53 PM 97.0 °F 14.0 °F 5% 29.94 in 10.0 mi NE 19.6 mph 33.4 mph N/A   Clear
3:53 PM 98.1 °F 14.0 °F 5% 29.92 in 10.0 mi NE 18.4 mph 27.6 mph N/A   Clear
4:53 PM 98.1 °F 14.0 °F 5% 29.91 in 10.0 mi NE 15.0 mph 21.9 mph N/A   Clear
5:53 PM 97.0 °F 12.9 °F 5% 29.90 in 10.0 mi NE 12.7 mph - N/A   Clear
6:53 PM 93.9 °F 12.9 °F 5% 29.90 in 10.0 mi NE 11.5 mph - N/A   Clear
7:53 PM 90.0 °F 12.9 °F 6% 29.92 in 10.0 mi NE 9.2 mph - N/A   Partly Cloudy
8:53 PM 88.0 °F 16.0 °F 7% 29.95 in 10.0 mi West 4.6 mph - N/A   Clear
9:53 PM 86.0 °F 21.9 °F 10% 29.96 in 10.0 mi North 4.6 mph - N/A   Partly Cloudy
10:53 PM 81.0 °F 26.1 °F 13% 29.98 in 10.0 mi NNW 3.5 mph - N/A   Partly Cloudy
11:53 PM 78.1 °F 28.9 °F 17% 29.98 in 10.0 mi North 4.6 mph - N/A   Partly Cloudy